User: anonymous   Login
Location: Unspecified
(0.0000°N, 0.0000°E)
Time: 05:43:41
(UTC+00:00)
Language:

STARLINK-32634 - Orbit

View from above orbital plane
View from above orbital plane
View from above satellite
View from above satellite

Ground track
Ground track

The orbit is defined by the following mean orbital elements,

1 62313U          26145.34901851 +.00000000 +00000-0 +66541-3 0 00002
2 62313  53.1572 184.8628 0000870  95.9224 264.1876 15.30204846    00
Epoch (UTC): 25 May 2026 08:22:35
Eccentricity: 0.0000870
inclination: 53.1572°
perigee height: 475 km
apogee height: 476 km
right ascension of ascending node: 184.8628°
argument of perigee: 95.9224°
revolutions per day: 15.30204846
mean anomaly at epoch: 264.1876°

The dashed part of the orbit path shows where the satellite is in the earth's shadow,  

DLR